sat.trackr.live / text

‹ back to catalog

STARLINK-6139

NORAD 57109 · 2023-090J

PAYLOAD ACTIVE UNKNOWN

§ Identity

Operator
Country
US
Launch date
2023-06-23
Launch site
AFETR
Launch vehicle
Mass (kg)
RCS (m²)

Purposes: comms

External: N2YO · Heavens-Above · Gunter

§ Orbital elements

Epoch: 2026-09-20T10:50:34.173024Z

Period
94.27 min
Inclination
43.0045°
Eccentricity
0.0001371
Mean motion
15.27578161 rev/d
Perigee alt
482.1 km
Apogee alt
484.0 km
Semi-major
6,861.2 km
B*
1.6757e-5
RAAN
262.0756°
Arg perigee
294.3454°
Mean anomaly
65.7255°
Rev number
18,011

§ Raw data

STARLINK-61391 57109U 23090J   26263.45178441  .00000199  00000+0  16757-4 0  99972 57109  43.0045 262.0756 0001371 294.3454  65.7255 15.27578161180115

JSON: /api/v1/satellites/57109 · /tle

For live sub-satellite position, see the globe view (requires WebGL).

§ Visibility from observer

Set your observer location to see the next 7 days of passes ≥ 10°. The values pass through the URL so the page stays shareable.

No JS? Fill the form by hand. The geolocation button needs JavaScript.